Miscellaneous Local Product
Issued by NWS Hastings, NE

Home | Current Version | Previous Version | Text Only | Print | Product List | Glossary On
Versions: 1 2 3 4 5 6 7 8 9 10 11 12 13 14 15 16 17 18 19 20 21 22 23 24 25 26 27 28 29 30 31 32 33 34 35 36 37 38 39 40 41 42 43 44 45 46 47 48 49 50
000
AXUS43 KGID 241102
MISGRI

GID CWA HOURLY WEATHER ROUNDUP
NATIONAL WEATHER SERVICE HASTINGS NE
600 AM CDT SUN JUL 24 2016

NOTE: "FAIR" INDICATES FEW OR NO CLOUDS BELOW 12,000 FEET WITH NO
SIGNIFICANT WEATHER AND/OR OBSTRUCTIONS TO VISIBILITY.

...SOUTH CENTRAL NEBRASKA...

CITY           SKY/WX    TMP DP  RH WIND       PRES   REMARKS
GRAND ISLAND   CLEAR     69  65  86 NE7       29.94R
HASTINGS       CLEAR     71  68  90 NE7       29.94R
KEARNEY        PTCLDY    68  63  83 NE3       29.96R
ORD            CLEAR     66  62  87 NW8       29.97R
YORK           CLEAR     72  68  88 CALM      29.93R
AURORA         CLEAR     70  68  93 NE5       29.93R
LEXINGTON      CLOUDY    68  62  79 NE7       29.97F
HOLDREGE       MOCLDY    69  65  86 NE5       29.96R
HEBRON         PTCLDY    75  71  86 NE8       29.90R

...NEBRASKA PANHANDLE...

CITY           SKY/WX    TMP DP  RH WIND       PRES   REMARKS
CHADRON        MOCLDY    60  50  69 E3        30.06F
ALLIANCE       CLOUDY    61  57  87 N5        30.05F
SCOTTSBLUFF    PTCLDY    63  56  78 CALM      30.05F
SIDNEY         CLOUDY    63  55  75 W5        30.13R

...WESTERN AND NORTH CENTRAL NEBRASKA...

CITY           SKY/WX    TMP DP  RH WIND       PRES   REMARKS
VALENTINE      MOCLDY    62  58  86 CALM      30.03R
AINSWORTH      MOCLDY    65  61  86 N3        30.02R
ONEILL         MOCLDY    64  62  93 W8        29.98R
BROKEN BOW     CLOUDY    64  61  90 N9        29.99R
IMPERIAL       CLOUDY    72  56  57 CALM      30.03R
NORTH PLATTE   CLOUDY    68  59  73 E8        29.98F
MCCOOK         CLOUDY    70  62  76 SE5       29.98R

...EASTERN NEBRASKA...

CITY           SKY/WX    TMP DP  RH WIND       PRES   REMARKS
NORFOLK        CLEAR     68  62  81 VRB3      29.92S
SO SIOUX CITY  CLEAR     75  64  68 N10       29.89R
TEKAMAH        CLEAR     75  71  87 N12       29.87R
COLUMBUS       CLEAR     68  57  68 E3        29.91R
ALBION         CLEAR     67  62  82 NW3       29.94R
OMAHA EPPLEY   PTCLDY    78  74  87 N8        29.85R
OFFUTT AFB     PTCLDY    79  76  90 N9        29.86R
MILLARD        CLEAR     80  74  80 N5        29.86R
LINCOLN        CLEAR     75  70  84 N7        29.90R
NEBRASKA CITY  CLOUDY    77  71  83 W8        29.87R
BEATRICE       MOCLDY    73  69  89 CALM      29.90R
FALLS CITY     CLOUDY    80  71  74 W8        29.84R

...NORTHERN KANSAS...

CITY           SKY/WX    TMP DP  RH WIND       PRES   REMARKS
GOODLAND       CLOUDY    70  64  81 E9        30.03S
HILL CITY      CLOUDY    77  69  76 N14G21    29.93R
NORTON         SUNNY     73  63  68 NE5       29.96R
SMITH CENTER   CLEAR     75  70  83 NE16      29.90R
BELOIT         PTCLDY    75  66  73 SE7       29.87R
HAYS           CLOUDY    79  61  53 SE7       29.91S
RUSSELL        CLOUDY    78  67  68 W15       29.88S
CONCORDIA      CLOUDY    75  67  76 SE3       29.89R
SALINA         CLOUDY    85  67  54 S10       29.88R
TOPEKA         PTCLDY    79  71  76 S7        29.88R



USA.gov is the U.S. government's official web portal to all federal, state and local government web resources and services.